Location: Düngen
(52.0952°N, 10.0219°E)
Time: 19:23:08
(UTC+00:00)

In-Cosmos 22 - Pass Details

Date: 11 March 2026
Orbit: 783 x 874 km, 81.2° (Epoch: 20 April)

Event Time Altitude Azimuth Distance (km) Brightness Sun altitude
Rises 19:20:56 0° 347° (NNW) 3,300 7.8 -19.5°
Reaches altitude 10° 19:23:20 10° 347° (NNW) 2,361 7.0 -19.8°
Maximum altitude 19:28:39 87° 77° (ENE) 793 3.9 -20.6°
Enters shadow 19:31:35 27° 166° (SSE) 1,460 5.1 -21.0°
